Regional Weather Roundup
Issued by NWS San Angelo, TX

Home | Current Version | Previous Version | Text Only | Print | Product List | Glossary On
Versions: 1 2 3 4 5 6 7 8 9 10 11 12 13 14 15 16 17 18 19 20 21 22 23 24 25 26 27 28 29 30 31 32 33 34 35 36 37 38 39 40 41 42 43 44 45 46 47 48 49 50
000
ASUS44 KSJT 291911
RWRSJT
WEST CENTRAL TEXAS REGIONAL WEATHER ROUNDUP
NATIONAL WEATHER SERVICE SAN ANGELO TX
200 PM CDT SUN MAY 29 2016

NOTE: "FAIR" INDICATES FEW OR NO CLOUDS BELOW 12,000 FEET WITH NO
SIGNIFICANT WEATHER AND/OR OBSTRUCTIONS TO VISIBILITY.

TXZ049-054-064>066-071>073-076>078-098-099-113-114-127-128-139-140-
154-155-168>170-292000
...LOCATIONS ACROSS WEST CENTRAL TEXAS...

CITY           SKY/WX    TMP DP  RH WIND       PRES   REMARKS
SAN ANGELO     MOSUNNY   86  65  49 S17G23    30.08F
ABILENE        SUNNY     84  65  52 S13       30.09F
DYESS AFB      MOSUNNY   85  65  50 S10G18    30.07F
JUNCTION       SUNNY     87  63  44 S13G21    30.07F
SWEETWATER     SUNNY     83  62  48 S18       30.13F
BROWNWOOD      SUNNY     84  63  48 SW6       30.08F
COLEMAN        CLEAR     87  60  40 SW9       30.08F
SONORA         SUNNY     86  63  45 SE14G23   30.13F
OZONA          FAIR      82  63  51 S17G24    30.13F
BRADY          NOT AVBL
$$

TEXAS PANHANDLE/OKLAHOMA PANHANDLE

CITY           SKY/WX    TMP DP  RH WIND       PRES   REMARKS
AMARILLO       CLOUDY    79  58  48 S22       30.10F
BORGER         TSTM      68  61  78 S8        30.17R
CANADIAN       CLOUDY    72  62  68 E18       30.12F
DALHART        CLOUDY    80  58  46 SW16      30.12F
DUMAS          LGT RAIN  72  58  60 SE10      30.12F
GUYMON         NOT AVBL
HEREFORD       PTCLDY    84  62  47 S18G26    30.14F
PAMPA          CLOUDY    70  58  67 NE21G29   30.15F
PERRYTON       CLOUDY    69  54  58 S16G22    30.09F
$$

SOUTHERN PANHANDLE/SOUTH PLAINS/ROLLING PLAINS

CITY           SKY/WX    TMP DP  RH WIND       PRES   REMARKS
LUBBOCK        PTSUNNY   82  62  50 SW18      30.13F
SNYDER           N/A     83  65  55 S13G20    30.12S
CHILDRESS      SUNNY     86  59  39 SE12      30.10F
SEMINOLE       CLOUDY    81  62  51 S13G22    30.13F
$$

PERMIAN BASIN

CITY           SKY/WX    TMP DP  RH WIND       PRES   REMARKS
MIDLAND        CLOUDY    81  63  54 S20G26    30.12S
ODESSA         CLOUDY    79  63  57 S18G25    30.13F
WINK           NOT AVBL
$$

FAR WEST/SOUTHWEST MOUNTAINS/TRANS PECOS

CITY           SKY/WX    TMP DP  RH WIND       PRES   REMARKS
ALPINE         CLOUDY    80  58  48 S7        30.22F
DRYDEN           N/A     75  68  78 SE12      30.09F
EL PASO        MOSUNNY   90  18   7 VRB6      30.08F
FORT STOCKTON  NOT AVBL
GUADALUPE PASS NOT AVBL
MARFA          PTSUNNY   80  53  39 SW8       30.19F
PECOS          CLOUDY    84  64  49 E15       30.05F
$$

DALLAS/FORT WORTH METROPLEX

CITY           SKY/WX    TMP DP  RH WIND       PRES   REMARKS
DFW AIRPORT    PTSUNNY   87  66  49 E6        30.06F
FTW MEACHAM    MOSUNNY   89  65  44 SE7       30.06F
DAL-EXECUTIVE  MOSUNNY   86  68  54 E10       30.06F
GRAND PRAIRIE  SUNNY     86  66  51 S3        30.08S
ADDISON        SUNNY     88  66  48 SE5       30.07F
MESQUITE       CLEAR     84  70  61 SE9       30.07S
LANCASTER      PTCLDY    84  69  61 SE6       30.07S
$$

NORTH CENTRAL TEXAS

CITY           SKY/WX    TMP DP  RH WIND       PRES   REMARKS
SHRMAN/DENISON CLOUDY    76  61  59 E8        30.10F
GAINESVILLE    CLOUDY    83  64  53 NE8       30.11F
BRIDGEPORT     CLEAR     85  64  49 S7        30.10S
DENTON         CLOUDY    87  63  44 E5        30.07F
WAXAHACHIE     PTCLDY    85  70  62 SE7       30.09R
GRANBURY       PTCLDY    86  65  49 SE8       30.09S
$$

WESTERN NORTH TEXAS

CITY           SKY/WX    TMP DP  RH WIND       PRES   REMARKS
WICHITA FALLS  SUNNY     86  60  41 CALM      30.08F
VERNON         CLEAR     85  53  32 CALM      30.10F
BRECKENRIDGE   CLEAR     85  64  49 SW6       30.08S HAZE
COMANCHE       SUNNY     87  65  47 S6        30.08F
$$

CENTRAL AND SOUTH CENTRAL TEXAS

CITY           SKY/WX    TMP DP  RH WIND       PRES   REMARKS
AUSTIN/BERGSTM CLOUDY    84  69  60 SE16      30.05S
WACO           CLOUDY    87  69  54 SE12      30.06F
HILLSBORO      PTCLDY    87  71  59 SE8       30.07F
TEMPLE         CLOUDY    85  69  58 S9        30.06F
KILLEEN-GRAY   PTSUNNY   84  67  56 S7        30.07S
FORT HOOD      NOT AVBL
GEORGETOWN     SUNNY     84  66  54 SE7       30.05F
LAGO VISTA     FAIR      82  66  58 SE7       30.08S
SAN MARCOS     SUNNY     84  73  70 SE16      30.04F
NEW BRAUNFELS  CLOUDY    87  72  60 S12       30.03F
RANDOLPH AFB   NOT AVBL
SAN ANTONIO    MOSUNNY   85  68  56 SE9       30.06F
STINSON        SUNNY     89  70  53 SE10      30.03F
PLEASANTON     NOT AVBL
LA GRANGE        N/A     87  74  64 SE8       30.05S
GIDDINGS       CLEAR     86  68  54 S6        30.10S
$$

EAST TEXAS

CITY           SKY/WX    TMP DP  RH WIND       PRES   REMARKS
PARIS          MOSUNNY   82  64  54 E5        30.10F
CLARKSVILLE    NOT AVBL
TYLER          CLOUDY    86  70  58 E12       30.08F
LONGVIEW       MOSUNNY   86  71  60 E6        30.08F
PALESTINE      CLOUDY    85  74  68 S6        30.09F
NACOGDOCHES    CLOUDY    82  72  69 SE7       30.08F
$$

TEXAS HILL COUNTRY AND EDWARDS PLATEAU

CITY           SKY/WX    TMP DP  RH WIND       PRES   REMARKS
LLANO          PTCLDY    91  64  40 SE3       30.09S
HORSESHOE BAY  FAIR      86  64  47 SE5       30.07R
KERRVILLE      SUNNY     84  69  59 S12       30.09F
FREDERICKSBRG  SUNNY     84  61  45 S14       30.08F
ROCKSPRINGS    PTCLDY    82  68  61 S16       30.14S
HONDO            N/A    N/A N/A N/A MISG      30.08F
UVALDE         MOCLDY    83  71  65 SE9       30.07F
DEL RIO          N/A     88  69  53 SE18G28   30.02F
$$

SOUTHEAST TEXAS

CITY           SKY/WX    TMP DP  RH WIND       PRES   REMARKS
COLLEGE STN    SUNNY     86  70  58 SE9       30.06F
CALDWELL       PTCLDY    84  70  61 SE12      30.09F
CROCKETT       PTCLDY    84  73  70 SE5       30.11F
BRENHAM        SUNNY     88  71  58 SE8       30.07F
HUNTSVILLE     MOSUNNY   88  68  51 VRB6      30.07F
CONROE         MOSUNNY   87  69  54 SE10      30.07F
HOUSTON BUSH   CLOUDY    85  70  60 E12G21    30.06F
HOUSTON HOBBY  CLOUDY    88  72  58 E10G16    30.05F
PERLAND        CLOUDY    90  73  57 SE13      30.07F
WHARTON        PTCLDY    88  73  60 E9        30.07R
$$

THE UPPER TEXAS COAST

CITY           SKY/WX    TMP DP  RH WIND       PRES   REMARKS
ORANGE         PTCLDY    87  69  53 SE7       30.11F
PORT ARTHUR    PTSUNNY   88  72  58 SE10      30.08F
GALVESTON      PTSUNNY   83  76  79 SE12      30.09F
ANGLETON       PTSUNNY   86  72  62 E13G21    30.04F
BAY CITY       PTCLDY    87  74  66 E12       30.06R
$$

TEXAS COASTAL BEND, RIO GRANDE PLAINS DEEP SOUTH TEXAS

CITY           SKY/WX    TMP DP  RH WIND       PRES   REMARKS
VICTORIA       PTSUNNY   86  73  65 SE12      30.06S
BEEVILLE       FAIR      89  76  65 SE15G23   30.03F
ROCKPORT       MOSUNNY   87  74  64 SE18      30.03F
PORT ARANSAS   LGT RAIN  86  75  71 E14G20    30.05R
PORT LAVACA    PTCLDY    85  77  78 SE15      30.06R
CORPUS CHRISTI PTSUNNY   87  73  62 SE14      30.04S
KINGSVILLE NAS PTSUNNY   89  78  70 E15G23    30.03F
COTULLA        MOSUNNY   92  69  47 SE15      30.03F
LAREDO         PTSUNNY   92  71  50 E14       30.02F
BROWNSVILLE    PTSUNNY   86  75  69 E17       30.02F
PORT ISABEL    MOSUNNY   89  76  65 SE23      30.01F
HEBBRONVILLE   MOCLDY    89  70  52 E15G22    30.03F
MCALLEN        MOSUNNY   94  76  55 E15G26    29.99F
WESLACO        HAZE      92  74  55 E13G23    29.98F VSB<1/4
FALFURRIAS     PTCLDY    90  72  54 E14       30.01F
EDINBURG       MOCLDY    93  72  51 SE16      30.00S
$$



USA.gov is the U.S. government's official web portal to all federal, state and local government web resources and services.